Salina, KS

5:57 PM CDT on June 24, 2017 (GMT -0500)
Salina Municipal

Weather History for KSLN - February, 2014

Change the Weather History Date:

Monday, February 17, 2014

  Actual Average Record
Temperature  
Mean Temperature 48 °F 36 °F  
Max Temperature 62 °F 47 °F 76 °F (1913)
Min Temperature 33 °F 25 °F -17 °F (1903)
Degree Days  
Heating Degree Days 17 29  
Month to date heating degree days 702 528  
Since 1 July heating degree days 3935 3544  
Cooling Degree Days 0 0  
Month to date cooling degree days 0 0  
Year to date cooling degree days 0 0  
Moisture  
Dew Point 28 °F    
Average Humidity 50    
Maximum Humidity 82    
Minimum Humidity 17    
Precipitation  
Precipitation 0.00 in 0.04 in 1.59 in (1911)
Month to date precipitation 1.14 0.65  
Year to date precipitation 1.63 1.28  
Sea Level Pressure  
Sea Level Pressure 29.96 in    
Wind  
Wind Speed 15 mph (West)    
Max Wind Speed 36 mph    
Max Gust Speed 44 mph    
Visibility 10 miles    
Events Rain    
T = Trace of Precipitation, MM = Missing Value Source: NWS Daily Summary

Daily Weather History Graph

Daily Weather History Graph

Search for Another Location

Airport or City:

Trip Planner

Search our weather history database for the weather conditions in past years. The results will help you decide how hot, cold, wet, or windy it might be!

Date:

Astronomy

Feb. 17, 2014 Rise Set
Actual Time 7:19 AM CST 6:10 PM CST
Civil Twilight 6:52 AM CST 6:37 PM CST
Nautical Twilight 6:20 AM CST 7:08 PM CST
Astronomical Twilight 5:50 AM CST 7:39 PM CST
Moon 9:04 PM CST (2/17) 8:22 AM CST (2/17)
Length of Visible Light 11h 45m
Length of Day
10h 51m
Waning Gibbous, 93% of the Moon is Illuminated
Feb 17
Waning Gibbous
Feb 22
Last Quarter
Mar 1
New
Mar 8
First Quarter
Mar 16
Full

Hourly Weather History & Observations

Time (CST) Temp. Windchill Dew Point Humidity Pressure Visibility Wind Dir Wind Speed Gust Speed Precip Events Conditions
12:48 AM 39.2 °F 35.0 °F 30.2 °F 70% 29.74 in 10.0 mi ESE 5.8 mph - N/A   Mostly Cloudy
12:53 AM 39.9 °F 36.7 °F 30.9 °F 70% 29.76 in 10.0 mi ESE 4.6 mph - N/A   Mostly Cloudy
1:53 AM 42.1 °F 39.2 °F 32.0 °F 67% 29.76 in 10.0 mi SE 4.6 mph - N/A   Overcast
2:53 AM 37.9 °F 32.1 °F 32.0 °F 79% 29.80 in 10.0 mi WNW 8.1 mph - N/A   Mostly Cloudy
3:01 AM 37.0 °F 32.4 °F 30.9 °F 79% 29.79 in 10.0 mi WNW 5.8 mph - N/A   Scattered Clouds
3:53 AM 33.1 °F 27.7 °F 28.9 °F 85% 29.80 in 10.0 mi West 5.8 mph - N/A   Clear
4:53 AM 42.1 °F 32.8 °F 30.9 °F 65% 29.85 in 10.0 mi WNW 21.9 mph 27.6 mph N/A   Clear
5:53 AM 43.0 °F 32.2 °F 33.1 °F 68% 29.92 in 10.0 mi NW 32.2 mph 43.7 mph 0.00 in Rain Light Rain
6:53 AM 41.0 °F 31.4 °F 32.0 °F 70% 29.99 in 10.0 mi NW 21.9 mph - 0.00 in   Clear
7:53 AM 42.1 °F 33.3 °F 32.0 °F 67% 30.03 in 10.0 mi NW 19.6 mph - N/A   Clear
8:53 AM 44.1 °F 36.8 °F 33.1 °F 65% 30.06 in 10.0 mi NW 16.1 mph - N/A   Clear
9:53 AM 48.9 °F - 34.0 °F 56% 30.07 in 10.0 mi NW 21.9 mph - N/A   Clear
10:53 AM 53.1 °F - 32.0 °F 45% 30.08 in 10.0 mi WNW 18.4 mph - N/A   Clear
11:53 AM 57.0 °F - 28.0 °F 33% 30.08 in 10.0 mi NW 16.1 mph - N/A   Clear
12:53 PM 57.9 °F - 23.0 °F 26% 30.04 in 10.0 mi NNW 18.4 mph - N/A   Clear
1:53 PM 61.0 °F - 21.9 °F 22% 30.04 in 10.0 mi WNW 18.4 mph - N/A   Clear
2:53 PM 61.0 °F - 19.0 °F 20% 30.04 in 10.0 mi WNW 15.0 mph - N/A   Clear
3:53 PM 62.1 °F - 17.1 °F 18% 30.03 in 10.0 mi West 13.8 mph - N/A   Clear
4:53 PM 61.0 °F - 19.9 °F 21% 30.02 in 10.0 mi WSW 13.8 mph - N/A   Clear
5:53 PM 51.1 °F - 28.0 °F 41% 30.02 in 10.0 mi SSW 10.4 mph - N/A   Clear
6:53 PM 46.0 °F 41.0 °F 28.0 °F 50% 30.02 in 10.0 mi SSW 10.4 mph - N/A   Clear
7:53 PM 46.0 °F 40.6 °F 27.0 °F 47% 30.01 in 10.0 mi SSW 11.5 mph - N/A   Clear
8:53 PM 46.0 °F 40.2 °F 27.0 °F 47% 29.99 in 10.0 mi SSW 12.7 mph - N/A   Clear
9:53 PM 45.0 °F 38.2 °F 27.0 °F 49% 29.99 in 10.0 mi SSW 15.0 mph - N/A   Clear
10:53 PM 45.0 °F 40.6 °F 26.1 °F 48% 29.96 in 10.0 mi South 8.1 mph - N/A   Clear
11:53 PM 45.0 °F 38.5 °F 26.1 °F 48% 29.94 in 10.0 mi South 13.8 mph - N/A   Clear